GW0507 Weather Reports


Display with metric or nautical units.
time (UTC)temp
F
wind
direction
speed
MPH
gust
MPH
rain 1hr
in
rain 24hr
in
rain mn
in
humidity
%
barometer
mb
20260506094536 58 247 18.0 27.0 0.00 0.00 0.00 74 1013.7
20260506093033 58 248 16.0 34.0 0.00 0.00 0.00 73 1013.7
20260506091532 58 217 19.0 29.0 0.00 0.00 0.00 75 1013.4
20260506090033 56 245 15.0 31.0 0.00 0.00 0.00 77 1013.2
20260506084541 56 246 14.0 26.0 0.00 0.00 0.00 76 1012.9
20260506083037 56 234 15.0 25.0 0.00 0.00 0.00 78 1013.0
20260506081534 55 227 13.0 24.0 0.00 0.00 0.00 78 1012.9
20260506073037 55 245 14.0 24.0 0.00 0.00 0.00 78 1013.4
20260506071537 56 223 10.0 18.0 0.00 0.00 0.00 77 1013.3
20260506061534 55 217 10.0 20.0 0.00 0.00 0.00 76 1013.3
20260506044534 55 275 17.0 31.0 0.00 0.00 0.00 75 1013.0
20260506043033 56 329 19.0 29.0 0.00 0.00 0.00 74 1012.9
20260506041536 57 262 18.0 31.0 0.00 0.00 0.00 73 1012.5
20260506040039 57 221 18.0 33.0 0.00 0.00 0.00 72 1012.5
20260506034534 58 234 18.0 30.0 0.00 0.00 0.00 71 1012.3
20260506033035 59 237 19.0 37.0 0.00 0.00 0.00 67 1012.4
20260506031535 59 242 17.0 33.0 0.00 0.00 0.00 67 1012.3
20260506030035 60 258 23.0 34.0 0.00 0.00 0.00 67 1012.2
20260506024536 59 243 20.0 36.0 0.00 0.00 0.00 68 1012.1
20260506023046 59 250 19.0 31.0 0.00 0.00 0.00 68 1012.4
20260506021536 58 240 17.0 29.0 0.00 0.00 0.00 68 1012.4
20260506020035 58 208 15.0 27.0 0.00 0.00 0.00 69 1012.5
20260506014537 58 240 19.0 29.0 0.00 0.00 0.00 68 1012.4
20260506013033 59 223 17.0 31.0 0.00 0.00 0.00 65 1012.5
20260506011535 59 229 18.0 29.0 0.00 0.00 0.00 65 1012.2
20260506010047 59 238 16.0 35.0 0.00 0.00 0.00 64 1012.3
20260506004535 58 217 13.0 21.0 0.00 0.00 0.00 65 1012.0
20260506003034 59 236 14.0 27.0 0.00 0.00 0.00 62 1011.6
20260506001539 60 230 15.0 24.0 0.00 0.00 0.00 60 1011.4
20260506000034 59 216 12.0 24.0 0.00 0.00 0.00 60 1011.4
20260505234551 60 162 12.0 22.0 0.00 0.00 0.00 59 1011.1
20260505233039 60 215 7.0 17.0 0.00 0.00 0.00 57 1010.9
20260505231535 60 213 10.0 21.0 0.00 0.00 0.00 56 1010.8
20260505230034 58 173 7.0 14.0 0.00 0.00 0.00 59 1010.7
20260505224536 62 199 8.0 16.0 0.00 0.00 0.00 53 1010.5
20260505223041 63 202 11.0 20.0 0.00 0.00 0.00 53 1010.5
20260505221536 63 236 10.0 17.0 0.00 0.00 0.00 51 1010.3
20260505220036 64 209 11.0 21.0 0.00 0.00 0.00 53 1010.2
20260505214558 67 221 14.0 23.0 0.00 0.00 0.00 48 1010.3
20260505213036 67 231 11.0 20.0 0.00 0.00 0.00 49 1010.1
20260505211535 68 232 12.0 24.0 0.00 0.00 0.00 46 1010.2
20260505210034 66 202 13.0 27.0 0.00 0.00 0.00 51 1010.3
20260505204537 61 187 9.0 17.0 0.00 0.00 0.00 57 1010.1
20260505203040 64 166 9.0 18.0 0.00 0.00 0.00 54 1010.0
20260505201537 61 244 10.0 16.0 0.00 0.00 0.00 58 1010.0
20260505200046 60 179 11.0 21.0 0.00 0.00 0.00 60 1009.9
20260505194544 62 111 11.0 19.0 0.00 0.00 0.00 56 1009.9
20260505193036 72 165 7.0 24.0 0.00 0.00 0.00 39 1009.7
20260505191535 75 277 15.0 27.0 0.00 0.00 0.00 32 1009.4
20260505190037 74 257 13.0 27.0 0.00 0.00 0.00 36 1009.5
20260505184534 74 247 18.0 32.0 0.00 0.00 0.00 36 1009.5
20260505183033 74 232 15.0 32.0 0.00 0.00 0.00 36 1009.6
20260505181537 74 229 15.0 30.0 0.00 0.00 0.00 36 1009.5
20260505180057 74 219 16.0 34.0 0.00 0.00 0.00 36 1009.5
20260505174550 70 237 17.0 31.0 0.00 0.00 0.00 45 1009.6
20260505173042 65 211 11.0 22.0 0.00 0.00 0.00 58 1010.0
20260505171533 61 175 12.0 21.0 0.00 0.00 0.00 64 1009.9
20260505170037 62 167 12.0 23.0 0.00 0.00 0.00 62 1010.1
20260505164535 57 180 12.0 22.0 0.00 0.01 0.00 67 1010.1
20260505163035 57 149 9.0 18.0 0.00 0.01 0.00 68 1010.0
20260505161537 56 170 13.0 19.0 0.00 0.01 0.00 69 1010.1
20260505153036 55 154 8.0 17.0 0.00 0.15 0.00 69 1010.5
20260505151535 57 148 10.0 19.0 0.00 0.15 0.00 64 1010.3
20260505124543 56 246 9.0 16.0 0.00 0.29 0.00 64 1010.7
20260505123037 54 204 5.0 13.0 0.00 0.29 0.00 67 1010.5
20260505121535 48 101 2.0 9.0 0.00 0.29 0.00 78 1010.4
20260505120043 46 135 7.0 10.0 0.00 0.29 0.00 78 1010.2
20260505114540 46 145 6.0 14.0 0.00 0.29 0.00 79 1010.2
20260505113036 49 138 5.0 14.0 0.00 0.29 0.00 75 1010.2
20260505111537 49 239 7.0 16.0 0.00 0.29 0.00 76 1010.0
20260505101537 47 235 9.0 20.0 0.00 0.31 0.00 78 1009.4
20260505100035 47 307 12.0 22.0 0.00 0.31 0.00 78 1009.4